Weather History for KOTM - September, 2012

Change the Weather History Date:

Tuesday, September 11, 2012

  Actual Average Record
Temperature  
Mean Temperature 74 °F 66 °F  
Max Temperature 91 °F 78 °F 101 °F (1936)
Min Temperature 57 °F 55 °F 35 °F (1940)
Degree Days  
Heating Degree Days 0 2  
Month to date heating degree days 9 16  
Since 1 July heating degree days 14 27  
Cooling Degree Days 9 4  
Month to date cooling degree days 69 53  
Year to date cooling degree days 1206 887  
Growing Degree Days 24 (Base 50)    
Moisture  
Dew Point 52 °F    
Average Humidity 52    
Maximum Humidity 80    
Minimum Humidity 24    
Precipitation  
Precipitation 0.00 in 0.14 in 3.73 in (1913)
Month to date precipitation 0.21 1.50  
Year to date precipitation 18.69 28.20  
Sea Level Pressure  
Sea Level Pressure 30.00 in    
Wind  
Wind Speed 11 mph (South)    
Max Wind Speed 21 mph    
Max Gust Speed 28 mph    
Visibility 10 miles    
Events Rain    
T = Trace of Precipitation, MM = Missing Value Source: NWS Daily Summary

Daily Weather History Graph

Daily Weather History Graph

Search for Another Location

Airport or City:

Trip Planner

Search our weather history database for the weather conditions in past years. The results will help you decide how hot, cold, wet, or windy it might be!

Date:

Astronomy

Sep. 11, 2012 Rise Set
Actual Time 6:46 AM CDT 7:24 PM CDT
Civil Twilight 6:19 AM CDT 7:52 PM CDT
Nautical Twilight 5:46 AM CDT 8:25 PM CDT
Astronomical Twilight 5:12 AM CDT 8:59 PM CDT
Moon 2:02 AM CDT (9/11) 4:37 PM CDT (9/11)
Length of Visible Light 13h 33m
Length of Day
12h 38m
Waning Crescent, 21% of the Moon is Illuminated
Sep 11
Waning Crescent
Sep 15
New
Sep 22
First Quarter
Sep 29
Full
Oct 8
Last Quarter

Hourly Weather History & Observations

Time (CDT) Temp. Heat Index Dew Point Humidity Pressure Visibility Wind Dir Wind Speed Gust Speed Precip Events Conditions
12:53 AM 57.9 °F - 50.0 °F 75% 30.02 in 10.0 mi South 6.9 mph - N/A   Clear
1:53 AM 57.9 °F - 50.0 °F 75% 30.02 in 10.0 mi South 6.9 mph - N/A   Clear
2:53 AM 57.9 °F - 50.0 °F 75% 30.01 in 10.0 mi South 8.1 mph - N/A   Clear
3:53 AM 59.0 °F - 51.1 °F 75% 30.00 in 10.0 mi South 9.2 mph - N/A   Clear
4:53 AM 57.9 °F - 51.1 °F 78% 30.01 in 10.0 mi South 8.1 mph - N/A   Clear
5:53 AM 57.9 °F - 51.1 °F 78% 30.02 in 10.0 mi South 8.1 mph - N/A   Clear
6:53 AM 57.0 °F - 51.1 °F 81% 30.03 in 10.0 mi South 8.1 mph - N/A   Clear
7:53 AM 60.1 °F - 52.0 °F 75% 30.04 in 10.0 mi South 10.4 mph 17.3 mph N/A   Clear
8:53 AM 64.9 °F - 54.0 °F 68% 30.04 in 10.0 mi SSW 11.5 mph - N/A   Clear
9:53 AM 73.0 °F - 54.0 °F 51% 30.04 in 10.0 mi SSW 12.7 mph 19.6 mph N/A   Clear
10:53 AM 79.0 °F - 54.0 °F 42% 30.04 in 10.0 mi SSW 15.0 mph 21.9 mph N/A   Clear
11:53 AM 82.9 °F 81.9 °F 54.0 °F 37% 30.03 in 10.0 mi South 10.4 mph - N/A   Clear
12:53 PM 86.0 °F 84.0 °F 53.1 °F 32% 30.01 in 10.0 mi South 8.1 mph 18.4 mph N/A   Clear
1:53 PM 89.1 °F 86.7 °F 53.1 °F 29% 29.99 in 10.0 mi South 13.8 mph - N/A   Clear
2:53 PM 90.0 °F - 48.0 °F 24% 29.96 in 10.0 mi South 15.0 mph 24.2 mph N/A   Clear
3:53 PM 90.0 °F - 50.0 °F 25% 29.95 in 10.0 mi South 12.7 mph 24.2 mph N/A   Clear
4:53 PM 89.1 °F - 50.0 °F 26% 29.94 in 10.0 mi South 13.8 mph 23.0 mph N/A   Clear
5:53 PM 86.0 °F - 51.8 °F 31% 29.95 in 10.0 mi South 12.7 mph 24.2 mph N/A   Clear
6:53 PM 84.0 °F - 52.0 °F 33% 29.94 in 10.0 mi South 15.0 mph - N/A   Clear
7:53 PM 79.0 °F - 53.1 °F 40% 29.95 in 10.0 mi South 6.9 mph - 0.00 in Rain Light Rain
8:53 PM 75.9 °F - 53.1 °F 45% 29.97 in 10.0 mi South 8.1 mph - 0.00 in   Clear
9:53 PM 73.9 °F - 54.0 °F 50% 29.98 in 10.0 mi South 9.2 mph - N/A   Clear
10:53 PM 73.0 °F - 55.0 °F 53% 29.99 in 10.0 mi South 10.4 mph - N/A   Clear
11:53 PM 71.1 °F - 55.9 °F 59% 29.99 in 10.0 mi South 10.4 mph - N/A   Clear